Simultaneous Nadir Overpasses (SNOs) Predictions

Prediction of SNOs between NOAA-20 and METOP-C Satellite Orbit:

Table of predicted SNOs for the next 14.0 days since TLE Epoch: 11/28/2020
Index Date (NOAA-20) Time (NOAA-20) Lat,Lon (NOAA-20) SZA (NOAA-20 ) Date (METOP-C) Time (METOP-C) Lat,Lon (METOP-C) SZA (METOP-C ) Distance(km) Time Diff (sec)
1 12/05/2020 14:41:42 -73.33, 130.05 84.18 12/05/2020 14:42:49 -73.29, 132.74 84.30 86.19 67
2 12/05/2020 15:32:24 73.13, -62.21 95.62 12/05/2020 15:33:33 73.11, -60.31 95.54 61.20 69
3 12/05/2020 16:23:06 -73.03, 105.32 84.48 12/05/2020 16:24:17 -72.97, 106.70 84.59 45.43 71
4 12/05/2020 17:13:49 72.88, -87.05 95.37 12/05/2020 17:15:01 72.79, -86.34 95.25 25.43 72
5 12/05/2020 18:04:30 -72.73, 80.58 84.79 12/05/2020 18:05:44 -72.69, 80.79 84.84 8.19 74
6 12/05/2020 18:55:15 72.68,-112.01 95.16 12/05/2020 18:56:25 72.67,-111.93 95.14 3.07 70
7 12/05/2020 19:45:58 -72.63, 55.41 84.89 12/05/2020 19:47:07 -72.62, 55.31 84.90 3.35 69
8 12/05/2020 20:36:44 72.64,-137.29 95.12 12/05/2020 20:37:47 72.65,-137.31 95.13 1.60 63
9 12/05/2020 21:27:28 -72.64, 30.02 84.87 12/05/2020 21:28:28 -72.66, 30.04 84.86 1.99 60
10 12/05/2020 22:18:14 72.64,-162.67 95.14 12/05/2020 22:19:09 72.63,-162.69 95.12 1.39 55
11 12/05/2020 23:08:58 -72.64, 4.64 84.86 12/05/2020 23:09:50 -72.64, 4.66 84.87 0.79 52
12 12/05/2020 23:59:44 72.64, 171.95 95.15 12/06/2020 00:00:30 72.66, 172.04 95.16 3.42 46
13 12/06/2020 00:50:28 -72.65, -20.74 84.85 12/06/2020 00:51:12 -72.62, -20.72 84.88 3.26 44
14 12/06/2020 01:41:14 72.65, 146.57 95.16 12/06/2020 01:41:52 72.64, 146.66 95.15 3.06 38
15 12/06/2020 02:31:57 -72.60, -46.02 84.89 12/06/2020 02:32:34 -72.60, -46.10 84.89 2.76 37
16 12/06/2020 03:22:43 72.60, 121.29 95.12 12/06/2020 03:23:14 72.62, 121.28 95.14 2.34 31
17 12/06/2020 04:13:27 -72.60, -71.40 84.88 12/06/2020 04:13:55 -72.63, -71.38 84.86 3.00 28
18 12/06/2020 05:04:13 72.60, 95.90 95.13 12/06/2020 05:04:36 72.60, 95.90 95.13 0.40 23
19 12/06/2020 05:54:57 -72.61, -96.78 84.86 12/06/2020 05:55:17 -72.61, -96.76 84.87 0.94 20
20 12/06/2020 06:45:43 72.61, 70.52 95.15 12/06/2020 06:45:58 72.58, 70.52 95.12 2.90 15
21 12/06/2020 07:36:27 -72.61,-122.17 84.85 12/06/2020 07:36:39 -72.59,-122.14 84.87 2.48 12
22 12/06/2020 08:27:13 72.61, 45.14 95.16 12/06/2020 08:27:19 72.61, 45.24 95.16 3.39 6
23 12/06/2020 09:17:56 -72.56,-147.45 84.89 12/06/2020 09:18:01 -72.57,-147.52 84.88 2.46 5
24 12/06/2020 10:08:42 72.56, 19.86 95.12 12/06/2020 10:08:41 72.59, 19.86 95.15 3.23 1
25 12/06/2020 10:59:26 -72.57,-172.83 84.88 12/06/2020 10:59:23 -72.55,-172.90 84.90 2.87 3
26 12/06/2020 11:50:12 72.57, -5.52 95.13 12/06/2020 11:50:03 72.57, -5.52 95.14 0.64 9
27 12/06/2020 12:40:56 -72.57, 161.79 84.87 12/06/2020 12:40:44 -72.58, 161.83 84.86 1.81 12
28 12/06/2020 13:31:42 72.57, -30.90 95.14 12/06/2020 13:31:25 72.55, -30.90 95.13 2.00 17
29 12/06/2020 14:22:26 -72.58, 136.41 84.86 12/06/2020 14:22:06 -72.56, 136.45 84.87 1.96 20
30 12/06/2020 15:13:11 72.53, -56.18 95.10 12/06/2020 15:12:47 72.54, -56.28 95.12 3.25 24
31 12/06/2020 16:03:55 -72.53, 111.13 84.90 12/06/2020 16:03:28 -72.54, 111.07 84.88 2.55 27
32 12/06/2020 16:54:41 72.53, -81.57 95.11 12/06/2020 16:54:09 72.52, -81.65 95.11 3.34 32
33 12/06/2020 17:45:25 -72.53, 85.74 84.89 12/06/2020 17:44:50 -72.52, 85.69 84.89 1.99 35
34 12/06/2020 18:36:10 72.53,-106.95 95.13 12/06/2020 18:35:29 72.55,-106.93 95.14 1.64 41
35 12/06/2020 19:26:54 -72.54, 60.36 84.87 12/06/2020 19:26:10 -72.56, 60.42 84.85 2.79 44
36 12/06/2020 20:17:40 72.54,-132.33 95.14 12/06/2020 20:16:51 72.53,-132.31 95.13 1.29 49
37 12/06/2020 21:08:24 -72.54, 34.98 84.86 12/06/2020 21:07:32 -72.54, 35.04 84.86 1.91 52
38 12/06/2020 21:59:09 72.49,-157.61 95.10 12/06/2020 21:58:13 72.51,-157.69 95.12 3.28 56
39 12/06/2020 22:49:53 -72.49, 9.70 84.90 12/06/2020 22:48:54 -72.52, 9.66 84.87 3.00 59
40 12/06/2020 23:40:39 72.49, 177.01 95.11 12/06/2020 23:39:35 72.49, 176.93 95.11 2.59 64
41 12/07/2020 00:31:23 -72.50, -15.68 84.89 12/07/2020 00:30:16 -72.50, -15.72 84.88 1.32 67
42 12/07/2020 01:22:09 72.50, 151.62 95.12 12/07/2020 01:20:56 72.52, 151.66 95.15 2.64 73
43 12/07/2020 02:12:53 -72.50, -41.06 84.88 12/07/2020 02:11:38 -72.48, -41.10 84.89 2.83 75
44 12/07/2020 03:03:35 72.30, 126.65 94.92 12/07/2020 03:02:22 72.30, 125.87 94.95 26.30 73
45 12/07/2020 03:54:17 -72.20, -65.84 85.19 12/07/2020 03:53:05 -72.20, -66.98 85.14 38.69 72
46 12/07/2020 04:44:59 71.99, 101.86 94.61 12/07/2020 04:43:50 71.97, 99.90 94.65 67.44 69
47 12/07/2020 05:35:41 -71.90, -90.64 85.50 12/07/2020 05:34:33 -71.88, -92.94 85.44 79.64 68
